Flag for USA

Past Weather in Hugo, Minnesota, USA — Yesterday and Last 2 Weeks

Now
55 °F

Passing clouds.


Feels Like: 52 °F
Forecast: 60 / 32 °F
Wind: 12 mph from Southeast

Location: Minneapolis / Blaine
Current Time: Sep 18, 2020 at 11:52:33 am
Latest Report: Sep 18, 2020 at 10:45 am
Visibility: 10 mi
Pressure30.45 "Hg
Humidity: 36%
Dew Point: 28 °F
Location of HugoLocation

Past Weather in Hugo — Graph

°F

Hugo Temperature Yesterday

Maximum temperature yesterday: 59 °F (at 5:45 pm)
Minimum temperature yesterday: 39 °F (at 5:55 am)
Average temperature yesterday: 47 °F

High & Low Weather Summary for the Past Weeks

 TemperatureHumidityPressure
High84 °F (Sep 6, 3:45 pm)100% (Sep 5, 3:55 am)30.49 "Hg (Sep 5, 3:55 am)
Low34 °F (Sep 10, 4:35 am)34% (Sep 5, 1:45 pm)29.66 "Hg (Sep 6, 1:45 pm)
Average56 °F78%30.14 "Hg
* Reported Sep 3 9:45 am — Sep 18 9:45 am, Hugo. Weather by CustomWeather, © 2020

Note: Actual official high and low records may vary slightly from our data, if they occured in-between our weather recording intervals... More about our weather records

Hugo Weather History for the Previous 24 Hours

Scroll right to see more
 ConditionsComfort  
Time TempWeatherWind HumidityBarometerVisibility
9:45 am
Fri, Sep 18
52 °FPassing clouds.8 mph50%30.45 "Hg10 mi
8:45 am45 °FSunny.No wind93%30.44 "Hg10 mi
7:50 am37 °FSunny.No wind93%30.43 "Hg10 mi
6:57 am37 °FSunny.No wind100%30.42 "Hg10 mi
6:30 am36 °FClear.No wind100%30.41 "Hg10 mi
6:15 am37 °FFog.No wind100%30.41 "Hg1 mi
5:55 am36 °FClear.No wind100%30.41 "Hg7 mi
5:35 am37 °FClear.No wind100%30.40 "Hg10 mi
5:15 am37 °FClear.No wind100%30.40 "Hg10 mi
4:55 am37 °FClear.No wind100%30.39 "Hg10 mi
4:35 am37 °FClear.No wind100%30.39 "Hg10 mi
4:15 am37 °FClear.No wind100%30.38 "Hg10 mi
3:55 am37 °FClear.No wind100%30.38 "Hg10 mi
3:35 am39 °FClear.No wind93%30.38 "Hg10 mi
3:15 am41 °FClear.No wind93%30.38 "Hg10 mi
2:35 am43 °FClear.No wind93%30.37 "Hg10 mi
2:15 am41 °FClear.No wind93%30.37 "Hg10 mi
1:35 am43 °FClear.No wind81%30.36 "Hg10 mi
1:15 am45 °FClear.No wind81%30.36 "Hg10 mi
12:55 am45 °FClear.No wind81%30.35 "Hg10 mi
12:35 am46 °FClear.3 mph76%30.35 "Hg10 mi
12:15 am46 °FClear.5 mph82%30.35 "Hg10 mi
11:55 pm
Thu, Sep 17
46 °FClear.No wind76%30.34 "Hg10 mi
11:35 pm45 °FClear.No wind81%30.34 "Hg10 mi
11:15 pm45 °FClear.No wind81%30.34 "Hg10 mi
10:55 pm45 °FClear.No wind87%30.33 "Hg10 mi
10:35 pm45 °FClear.No wind93%30.33 "Hg10 mi
10:15 pm45 °FClear.No wind81%30.33 "Hg10 mi
9:45 pm45 °FPassing clouds.No wind81%30.33 "Hg10 mi
8:45 pm48 °FPassing clouds.No wind76%30.31 "Hg10 mi
7:45 pm52 °FPassing clouds.No wind62%30.29 "Hg10 mi
6:45 pm57 °FScattered clouds.5 mph44%30.28 "Hg10 mi
5:45 pm59 °FScattered clouds.9 mph42%30.28 "Hg10 mi
4:45 pm57 °FScattered clouds.8 mph41%30.29 "Hg10 mi
3:45 pm57 °FPartly sunny.8 mph41%30.28 "Hg10 mi
2:45 pm55 °FBroken clouds.7 mph38%30.31 "Hg10 mi
1:45 pm55 °FBroken clouds.7 mph38%30.31 "Hg10 mi
12:45 pm55 °FPartly sunny.6 mph44%30.31 "Hg10 mi
11:55 am54 °FPartly sunny.No wind44%30.31 "Hg10 mi
Weather by CustomWeather, © 2020

See weather overview